TimeEST,TemperatureF,Dew PointF,Humidity,Sea Level PressureIn,VisibilityMPH,Wind Direction,Wind SpeedMPH,Gust SpeedMPH,PrecipitationIn,Events,Conditions,WindDirDegrees,DateUTC
12:15 AM,62.6,59.0,88,30.17,10.0,WSW,4.6,-,N/A,,Overcast,240,2012-11-13 05:15:00
12:35 AM,62.6,59.0,88,30.18,10.0,WSW,12.7,-,N/A,Rain,Light Rain,250,2012-11-13 05:35:00
12:55 AM,60.8,59.0,94,30.18,7.0,West,8.1,-,0.01,,Drizzle,270,2012-11-13 05:55:00
1:15 AM,55.4,53.6,94,30.19,7.0,NW,6.9,-,N/A,Rain,Light Rain,320,2012-11-13 06:15:00
1:35 AM,53.6,51.8,94,30.18,5.0,NW,4.6,-,0.02,Rain,Heavy Rain,320,2012-11-13 06:35:00
1:55 AM,53.6,51.8,94,30.20,10.0,WNW,3.5,-,0.02,Rain,Light Rain,290,2012-11-13 06:55:00
2:15 AM,53.6,51.8,94,30.19,5.0,NNW,3.5,-,0.02,Rain,Rain,330,2012-11-13 07:15:00
2:35 AM,51.8,50.0,94,30.20,5.0,NNW,6.9,-,0.04,Rain,Light Rain,340,2012-11-13 07:35:00
2:55 AM,51.8,50.0,94,30.20,7.0,NNW,3.5,-,0.06,Rain,Light Rain,330,2012-11-13 07:55:00
3:15 AM,50.0,50.0,100,30.22,4.0,Calm,Calm,-,0.01,Rain,Rain,0,2012-11-13 08:15:00
3:35 AM,50.0,50.0,100,30.21,5.0,NNW,3.5,-,0.05,Rain,Rain,340,2012-11-13 08:35:00
3:55 AM,50.0,50.0,100,30.21,7.0,North,5.8,-,0.06,Rain,Rain,350,2012-11-13 08:55:00
4:15 AM,50.0,48.2,94,30.22,10.0,NNW,4.6,-,N/A,,Overcast,340,2012-11-13 09:15:00
4:35 AM,50.0,46.4,87,30.22,7.0,NNW,4.6,-,0.01,Rain,Rain,340,2012-11-13 09:35:00
4:55 AM,50.0,46.4,87,30.22,7.0,NNW,3.5,-,0.01,Rain,Rain,340,2012-11-13 09:55:00
5:15 AM,50.0,48.2,94,30.22,10.0,Calm,Calm,-,N/A,,Drizzle,0,2012-11-13 10:15:00
5:35 AM,50.0,48.2,94,30.24,10.0,North,3.5,-,N/A,Rain,Rain,350,2012-11-13 10:35:00
5:55 AM,48.2,46.4,93,30.24,7.0,NNE,6.9,-,0.01,,Light Drizzle,30,2012-11-13 10:55:00
6:15 AM,48.2,46.4,93,30.25,10.0,NNE,6.9,-,N/A,,Light Drizzle,30,2012-11-13 11:15:00
6:35 AM,46.4,44.6,93,30.26,10.0,North,4.6,-,N/A,,Overcast,360,2012-11-13 11:35:00
6:55 AM,46.4,44.6,93,30.27,10.0,North,5.8,-,N/A,,Overcast,360,2012-11-13 11:55:00
7:15 AM,46.4,44.6,93,30.28,10.0,NNW,3.5,-,N/A,,Overcast,330,2012-11-13 12:15:00
7:35 AM,46.4,44.6,93,30.29,10.0,North,3.5,-,N/A,,Overcast,350,2012-11-13 12:35:00
7:55 AM,46.4,44.6,93,30.29,10.0,NNE,5.8,-,N/A,,Overcast,30,2012-11-13 12:55:00
8:15 AM,46.4,44.6,93,30.30,10.0,NNE,4.6,-,N/A,Rain,Light Rain,20,2012-11-13 13:15:00
8:35 AM,46.4,44.6,93,30.31,10.0,Calm,Calm,-,N/A,,Overcast,0,2012-11-13 13:35:00
8:55 AM,46.4,44.6,93,30.31,10.0,NNE,5.8,-,N/A,,Overcast,30,2012-11-13 13:55:00
9:15 AM,46.4,42.8,87,30.32,10.0,North,6.9,-,N/A,,Mostly Cloudy,10,2012-11-13 14:15:00
9:35 AM,50.0,42.8,76,30.33,10.0,NNE,9.2,-,N/A,,Mostly Cloudy,20,2012-11-13 14:35:00
9:55 AM,50.0,41.0,71,30.34,10.0,North,5.8,-,N/A,,Scattered Clouds,360,2012-11-13 14:55:00
10:15 AM,50.0,39.2,66,30.34,10.0,North,8.1,-,N/A,,Scattered Clouds,10,2012-11-13 15:15:00
10:35 AM,50.0,37.4,62,30.34,10.0,NNE,10.4,-,N/A,,Scattered Clouds,30,2012-11-13 15:35:00
10:55 AM,51.8,37.4,58,30.33,10.0,North,8.1,-,N/A,,Clear,360,2012-11-13 15:55:00
11:15 AM,51.8,35.6,54,30.34,10.0,NNE,6.9,-,N/A,,Mostly Cloudy,30,2012-11-13 16:15:00
11:35 AM,51.8,33.8,50,30.33,10.0,North,5.8,-,N/A,,Overcast,10,2012-11-13 16:35:00
11:55 AM,53.6,33.8,47,30.32,10.0,North,5.8,-,N/A,,Scattered Clouds,350,2012-11-13 16:55:00
12:15 PM,55.4,33.8,44,30.31,10.0,North,5.8,17.3,N/A,,Clear,10,2012-11-13 17:15:00
12:35 PM,55.4,32.0,41,30.30,10.0,NE,8.1,-,N/A,,Clear,50,2012-11-13 17:35:00
12:55 PM,55.4,32.0,41,30.29,10.0,NE,10.4,-,N/A,,Clear,40,2012-11-13 17:55:00
1:15 PM,57.2,30.2,36,30.29,10.0,North,6.9,-,N/A,,Clear,350,2012-11-13 18:15:00
1:35 PM,57.2,28.4,33,30.29,10.0,NE,8.1,-,N/A,,Clear,50,2012-11-13 18:35:00
1:55 PM,57.2,28.4,33,30.28,10.0,NNE,6.9,-,N/A,,Clear,30,2012-11-13 18:55:00
2:15 PM,57.2,28.4,33,30.28,10.0,NNE,8.1,-,N/A,,Clear,20,2012-11-13 19:15:00
2:35 PM,57.2,26.6,31,30.28,10.0,NE,6.9,-,N/A,,Clear,40,2012-11-13 19:35:00
2:55 PM,57.2,26.6,31,30.28,10.0,NNE,10.4,-,N/A,,Clear,30,2012-11-13 19:55:00
3:15 PM,55.4,26.6,33,30.28,10.0,North,6.9,-,N/A,,Clear,360,2012-11-13 20:15:00
3:35 PM,55.4,24.8,31,30.29,10.0,NE,9.2,16.1,N/A,,Clear,50,2012-11-13 20:35:00
3:55 PM,55.4,26.6,33,30.30,10.0,NE,9.2,-,N/A,,Clear,40,2012-11-13 20:55:00
4:15 PM,55.4,26.6,33,30.30,10.0,NE,6.9,-,N/A,,Clear,50,2012-11-13 21:15:00
4:35 PM,53.6,26.6,35,30.30,10.0,North,3.5,-,N/A,,Clear,10,2012-11-13 21:35:00
4:55 PM,53.6,26.6,35,30.30,10.0,NE,6.9,-,N/A,,Clear,50,2012-11-13 21:55:00
5:15 PM,51.8,26.6,38,30.30,10.0,NNE,3.5,-,N/A,,Clear,20,2012-11-13 22:15:00
5:35 PM,50.0,26.6,40,30.31,10.0,North,3.5,-,N/A,,Clear,350,2012-11-13 22:35:00
5:55 PM,46.4,28.4,50,30.32,10.0,Calm,Calm,-,N/A,,Clear,0,2012-11-13 22:55:00
6:15 PM,44.6,30.2,57,30.32,10.0,NNW,3.5,-,N/A,,Clear,330,2012-11-13 23:15:00
6:35 PM,44.6,30.2,57,30.33,10.0,NNW,3.5,-,N/A,,Clear,340,2012-11-13 23:35:00
6:55 PM,41.0,32.0,70,30.34,10.0,Calm,Calm,-,N/A,,Clear,0,2012-11-13 23:55:00
7:15 PM,42.8,30.2,61,30.34,10.0,Calm,Calm,-,N/A,,Clear,0,2012-11-14 00:15:00
7:35 PM,41.0,30.2,65,30.35,10.0,Calm,Calm,-,N/A,,Clear,0,2012-11-14 00:35:00
7:55 PM,42.8,28.4,57,30.36,10.0,North,3.5,-,N/A,,Clear,360,2012-11-14 00:55:00
8:15 PM,44.6,28.4,53,30.36,10.0,NNE,6.9,-,N/A,,Clear,30,2012-11-14 01:15:00
8:35 PM,44.6,28.4,53,30.37,10.0,NNE,6.9,-,N/A,,Clear,30,2012-11-14 01:35:00
8:55 PM,44.6,28.4,53,30.38,10.0,NNE,5.8,-,N/A,,Clear,20,2012-11-14 01:55:00
9:15 PM,44.6,26.6,49,30.38,10.0,NNE,6.9,-,N/A,,Clear,20,2012-11-14 02:15:00
9:35 PM,44.6,26.6,49,30.39,10.0,North,5.8,-,N/A,,Clear,10,2012-11-14 02:35:00
9:55 PM,44.6,26.6,49,30.39,10.0,NNE,8.1,-,N/A,,Clear,20,2012-11-14 02:55:00
10:15 PM,42.8,26.6,53,30.39,10.0,NNW,3.5,-,N/A,,Clear,340,2012-11-14 03:15:00
10:35 PM,41.0,26.6,57,30.40,10.0,Calm,Calm,-,N/A,,Clear,0,2012-11-14 03:35:00
10:55 PM,41.0,26.6,57,30.40,10.0,NNW,3.5,-,N/A,,Clear,340,2012-11-14 03:55:00
11:15 PM,41.0,28.4,61,30.39,10.0,North,5.8,-,N/A,,Clear,10,2012-11-14 04:15:00
11:35 PM,41.0,26.6,57,30.39,10.0,North,4.6,-,N/A,,Clear,360,2012-11-14 04:35:00
11:55 PM,41.0,26.6,57,30.39,10.0,North,5.8,-,N/A,,Clear,360,2012-11-14 04:55:00